User: anonymous   Login
Location: Unspecified
(48.2082°N, 0.0000°E)
Time: 10:32:45
(UTC+00:00)
Language:

Vanguard 1 - Orbit

View from above orbital plane
View from above orbital plane
View from above satellite
View from above satellite

Ground track
Ground track

The orbit data is extracted from the following two-line orbital elements,

1     5U 58002B   20332.68505563 -.00000033 +00000-0 -27304-4 0  9996
2     5 034.2474 085.4043 1846317 006.9188 355.3566 10.84867661222980
Epoch (UTC): 27 November 2020 16:26:28
Eccentricity: 0.1846317
inclination: 34.2474°
perigee height: 650 km
apogee height: 3833 km
right ascension of ascending node: 85.4043°
argument of perigee: 6.9188°
revolutions per day: 10.84867661
mean anomaly at epoch: 355.3566°
orbit number at epoch: 22298

The dashed part of the orbit path shows where the satellite is in the earth's shadow,  

DLR